Home > Weather > Mödling > Past weeks

Flag for Austria Weather for the Past 2 Weeks in Mödling, Lower Austria, Austria

Now
37 °F

Clear.


Feels Like: 37 °F
Forecast: 31 / 58 °F
Wind: 1 mph from North

Location: Vienna Schwechat-Flughafen Airport

Current Time: Apr 29, 2016 at 1:03:40 AM

Latest Report: Apr 28, 2016 at 11:50 PM


Visibility: 10 mi

Pressure: 30.09 "Hg

Humidity: 87%

Dew Point: 34 °F

Location of MödlingLocation

Historic Weather in Mödling — Graph

°F

Mödling Temperature Yesterday

Maximum temperature yesterday: 50 °F (at 10:20 AM)
Minimum temperature yesterday: 30 °F (at 3:50 AM)
Average temperature yesterday: 42 °F

High & Low Weather Summary for the Past Weeks

 TemperatureHumidityPressure
High73 °F (Apr 16, 2:50 PM)100% (Apr 17, 1:50 AM)30.36 "Hg (Apr 17, 1:50 AM)
Low30 °F (Apr 26, 3:50 AM)29% (Apr 26, 1:50 PM)29.59 "Hg (Apr 23, 6:50 PM)
Average51 °F65%29.91 "Hg
* Reported Apr 13 11:20 PM — Apr 28 11:50 PM, Mödling, Weather by CustomWeather, © 2016

Note: Actual official high and low records may vary slightly from our data, if they occured in-between our weather recording intervals... More about our weather records

Advertising

Mödling Weather History for the Previous 24 Hours

Scroll right to see more
 ConditionsComfort  
Time TempWeatherWind HumidityBarometerVisibility
11:50 PM
Thu, Apr 28
37 °FClear.1 mph87%30.09 "Hg10 mi
11:20 PM37 °FClear.1 mph87%30.09 "Hg10 mi
10:50 PM37 °FClear.6 mph87%30.09 "Hg10 mi
10:20 PM37 °FPassing clouds.5 mph87%30.09 "HgN/A
9:50 PM39 °FPassing clouds.3 mph81%30.07 "HgN/A
9:20 PM39 °FPassing clouds.7 mph81%30.07 "HgN/A
8:50 PM41 °FPassing clouds.7 mph76%30.07 "HgN/A
8:20 PM39 °FPassing clouds.7 mph81%30.07 "HgN/A
7:50 PM41 °FPassing clouds.7 mph76%30.07 "HgN/A
7:20 PM45 °FPassing clouds.8 mph71%30.04 "HgN/A
6:50 PM46 °FPassing clouds.9 mph62%30.04 "HgN/A
6:20 PM48 °FPassing clouds.12 mph58%30.04 "HgN/A
5:50 PM46 °FScattered clouds.13 mph57%30.04 "HgN/A
5:20 PM48 °FBroken clouds.12 mph58%30.04 "HgN/A
4:50 PM46 °FBroken clouds.12 mph57%30.04 "HgN/A
4:20 PM48 °FBroken clouds.13 mph54%30.04 "HgN/A
3:50 PM48 °FBroken clouds.13 mph54%30.04 "HgN/A
3:20 PM48 °FBroken clouds.10 mph58%30.04 "HgN/A
2:50 PM46 °FBroken clouds.8 mph57%30.07 "HgN/A
2:20 PM46 °FBroken clouds.15 mph57%30.07 "HgN/A
1:50 PM46 °FBroken clouds.15 mph57%30.07 "HgN/A
1:20 PM46 °FBroken clouds.21 mph57%30.07 "HgN/A
12:50 PM46 °FBroken clouds.21 mph62%30.07 "HgN/A
12:20 PM48 °FBroken clouds.21 mph54%30.07 "HgN/A
11:50 AM50 °FBroken clouds.14 mph47%30.04 "HgN/A
11:20 AM50 °FBroken clouds.13 mph43%30.04 "HgN/A
10:50 AM50 °FPartly sunny.7 mph50%30.04 "HgN/A
10:20 AM50 °FPartly sunny.8 mph47%30.04 "HgN/A
9:50 AM46 °FPartly sunny.7 mph53%30.04 "HgN/A
9:20 AM46 °FPassing clouds.5 mph53%30.04 "HgN/A
7:50 AM39 °FPassing clouds.5 mph75%30.04 "HgN/A
6:50 AM34 °FSunny.8 mph87%30.01 "Hg10 mi
5:50 AM30 °FClear.5 mph86%30.01 "Hg10 mi
5:20 AM32 °FClear.7 mph80%30.01 "Hg10 mi
4:50 AM30 °FClear.8 mph86%30.01 "Hg10 mi
4:20 AM34 °FPassing clouds.7 mph81%30.01 "HgN/A
3:50 AM30 °FClear.7 mph86%30.01 "Hg10 mi
3:20 AM36 °FPassing clouds.3 mph75%29.98 "HgN/A
2:50 AM36 °FClear.5 mph70%29.98 "Hg10 mi
2:20 AM39 °FPassing clouds.6 mph65%29.98 "HgN/A
1:50 AM39 °FClear.12 mph65%29.98 "Hg10 mi
1:20 AM36 °FPassing clouds.3 mph75%29.98 "HgN/A
Weather by CustomWeather, © 2016

See weather overviewHow to use our weather pages